Moses Lake, WA

6:15 PM PDT on July 20, 2017 (GMT -0700)
Grant County International

Weather History for KMWH - April, 2013

Change the Weather History Date:

Monday, April 1, 2013

  Actual Average Record
Temperature  
Mean Temperature 57 °F 47 °F  
Max Temperature 76 °F 59 °F 76 °F (2013)
Min Temperature 38 °F 35 °F 22 °F (2008)
Degree Days  
Heating Degree Days 8 18  
Month to date heating degree days 8 18  
Since 1 July heating degree days 4739 5190  
Cooling Degree Days 0 0  
Month to date cooling degree days 0 0  
Year to date cooling degree days 0 0  
Growing Degree Days 7 (Base 50)    
Moisture  
Dew Point 36 °F    
Average Humidity 50    
Maximum Humidity 79    
Minimum Humidity 21    
Precipitation  
Precipitation 0.00 in 0.03 in 0.16 in (2012)
Month to date precipitation 0.00 0.03  
Year to date precipitation 1.02 2.75  
Sea Level Pressure  
Sea Level Pressure 29.94 in    
Wind  
Wind Speed 6 mph (West)    
Max Wind Speed 15 mph    
Max Gust Speed 17 mph    
Visibility 10 miles    
Events      
T = Trace of Precipitation, MM = Missing Value Source: NWS Daily Summary

Daily Weather History Graph

Daily Weather History Graph

Search for Another Location

Airport or City:

Trip Planner

Search our weather history database for the weather conditions in past years. The results will help you decide how hot, cold, wet, or windy it might be!

Date:

Astronomy

Apr. 01, 2013 Rise Set
Actual Time 6:35 AM PDT 7:27 PM PDT
Civil Twilight 6:04 AM PDT 7:58 PM PDT
Nautical Twilight 5:27 AM PDT 8:35 PM PDT
Astronomical Twilight 4:48 AM PDT 9:14 PM PDT
Moon 12:57 AM PDT (4/1) 10:09 AM PDT (4/1)
Length of Visible Light 13h 53m
Length of Day
12h 51m
Waning Gibbous, 66% of the Moon is Illuminated
Apr 1
Waning Gibbous
Apr 2
Last Quarter
Apr 10
New
Apr 18
First Quarter
Apr 25
Full

Hourly Weather History & Observations

Time (PDT) Temp. Windchill Dew Point Humidity Pressure Visibility Wind Dir Wind Speed Gust Speed Precip Events Conditions
12:52 AM 44.1 °F 41.5 °F 36.0 °F 73% 29.92 in 10.0 mi North 4.6 mph - N/A   Clear
1:52 AM 42.1 °F 38.4 °F 35.1 °F 76% 29.92 in 10.0 mi North 5.8 mph - N/A   Clear
2:52 AM 42.1 °F 39.2 °F 34.0 °F 73% 29.93 in 10.0 mi North 4.6 mph - N/A   Clear
3:52 AM 39.9 °F 35.8 °F 33.1 °F 77% 29.93 in 10.0 mi North 5.8 mph - N/A   Clear
4:52 AM 39.9 °F 35.8 °F 32.0 °F 73% 29.93 in 10.0 mi North 5.8 mph - N/A   Clear
5:52 AM 39.0 °F 35.7 °F 32.0 °F 76% 29.94 in 10.0 mi NNE 4.6 mph - N/A   Clear
6:52 AM 39.0 °F 34.8 °F 32.0 °F 76% 29.95 in 10.0 mi North 5.8 mph - N/A   Clear
7:52 AM 46.0 °F - 35.1 °F 66% 29.96 in 10.0 mi Calm Calm - N/A   Clear
8:52 AM 54.0 °F - 37.0 °F 53% 29.98 in 10.0 mi North 3.5 mph - N/A   Clear
9:52 AM 60.1 °F - 39.0 °F 46% 29.98 in 10.0 mi North 4.6 mph - N/A   Clear
10:52 AM 63.0 °F - 36.0 °F 37% 29.99 in 10.0 mi Variable 3.5 mph - N/A   Clear
11:52 AM 66.9 °F - 36.0 °F 32% 29.98 in 10.0 mi Variable 4.6 mph - N/A   Clear
12:52 PM 70.0 °F - 35.1 °F 28% 29.97 in 10.0 mi WNW 4.6 mph - N/A   Clear
1:52 PM 72.0 °F - 35.1 °F 26% 29.96 in 10.0 mi SSW 5.8 mph - N/A   Clear
2:52 PM 73.0 °F - 33.1 °F 23% 29.94 in 10.0 mi SSW 4.6 mph - N/A   Clear
3:52 PM 73.9 °F - 35.1 °F 24% 29.93 in 10.0 mi South 4.6 mph - N/A   Clear
4:52 PM 75.0 °F - 35.1 °F 23% 29.91 in 10.0 mi SSW 4.6 mph - N/A   Clear
5:52 PM 75.9 °F - 33.1 °F 21% 29.91 in 10.0 mi South 3.5 mph - N/A   Clear
6:52 PM 73.0 °F - 35.1 °F 25% 29.91 in 10.0 mi South 5.8 mph - N/A   Clear
7:52 PM 69.1 °F - 37.0 °F 31% 29.92 in 10.0 mi South 10.4 mph - N/A   Clear
8:52 PM 64.9 °F - 39.9 °F 40% 29.93 in 10.0 mi South 10.4 mph - N/A   Clear
9:52 PM 60.1 °F - 39.9 °F 47% 29.94 in 10.0 mi WSW 10.4 mph - N/A   Clear
10:52 PM 59.0 °F - 39.0 °F 48% 29.95 in 10.0 mi SW 8.1 mph - N/A   Clear
11:52 PM 57.0 °F - 39.0 °F 51% 29.96 in 10.0 mi West 5.8 mph - N/A   Clear